Regional Weather Roundup
Issued by NWS

Home | Current Version | Previous Version | Text Only | Print | Product List | Glossary On
Versions: 1 2 3 4 5 6 7 8 9 10 11 12 13 14 15 16 17 18 19 20 21 22 23 24 25 26 27 28 29 30 31 32 33 34 35 36 37 38 39 40 41 42 43 44 45 46 47 48 49 50
449
ASUS44 KJAN 230110
RWRMS

MISSISSIPPI HOURLY WEATHER ROUNDUP
NATIONAL WEATHER SERVICE JACKSON MS
800 PM CDT TUE APR 22 2014

NOTE: "FAIR: INDICATES FEW OR NO CLOUDS BELOW 12,000 FEET WITH NO
SIGNIFICANT WEATHER AND/OR OBSTRUCTIONS TO VISIBILITY.

MSZ001>002-007>008-010>013-018>021-025>028-034>036-230200-
NORTHWEST MISSISSIPPI

CITY           SKY/WX    TMP DP  RH WIND       PRES   REMARKS
CLARKSDALE       N/A     70  45  40 NW9       29.93R
CLEVELAND      FAIR      69  53  55 N8        29.91R
GREENWOOD      CLEAR     69  58  67 N7        29.90R
GREENVILLE     CLEAR     68  56  65 N7        29.91R
GRENADA        FAIR      66  55  68 NW6       29.91R
OLIVE BRANCH   CLEAR     64  46  52 N7        29.94R
OXFORD         FAIR      66  55  68 N5        29.93R
TUNICA         CLEAR     64  50  59 N8        29.93R
$$

MSZ003>006-009-014>017-022>024-029>033-037>039-230200-
NORTHEAST MISSISSIPPI

CITY           SKY/WX    TMP DP  RH WIND       PRES   REMARKS
BELMONT        FAIR      68  59  72 NW3       29.88R
COLUMBUS AFB   MOCLDY    68  63  83 CALM      29.88R
CORINTH        FAIR      68  52  56 N7        29.90R
GOLDN TRIANGLE PTCLDY    70  61  73 CALM      29.90R
STARKVILLE     FAIR      64  63  94 CALM      29.88R
TUPELO         CLEAR     72  56  57 N8        29.88R
$$

MSZ040-058-230200-
CENTRAL MISSISSIPPI

CITY           SKY/WX    TMP DP  RH WIND       PRES   REMARKS
JACKSON INTL   MOCLDY    70  61  73 CALM      29.90R
JACKSON HAWKNS PTCLDY    72  60  66 CALM      29.90R
MERIDIAN KEY   CLEAR     63  62  97 CALM      29.89S FOG
MERIDIAN NAS   CLEAR     64  63  96 CALM      29.90R FOG
RAYMOND        FAIR      66  61  82 CALM      29.91R
VICKSBURG      CLEAR     73  61  65 NW5       29.91R
$$

MSZ059>079-230200-
SOUTH MISSISSIPPI

CITY           SKY/WX    TMP DP  RH WIND       PRES   REMARKS
BROOKHAVEN     FAIR      66  64  94 CALM      29.92R
HATTIESBURG    CLEAR     68  63  84 CALM      29.90R
MCCOMB         CLEAR     69  62  78 CALM      29.91R
NATCHEZ        CLEAR     70  61  73 CALM      29.92R
PINE BELT      CLEAR     64  61  88 CALM      29.91R
$$

MSZ080>082-230200-
COASTAL MISSISSIPPI

CITY           SKY/WX    TMP DP  RH WIND       PRES   REMARKS
BAY ST LOUIS   PTCLDY    70  63  78 CALM      29.89R
BILOXI         CLOUDY    69  66  91 SW6       29.88R
PASCAGOULA     CLOUDY    70  65  84 W3        29.88R
GULFPORT       MOCLDY    73  66  78 CALM      29.88R
$$



USA.gov is the U.S. government's official web portal to all federal, state and local government web resources and services.